Aérodrome :
LOGIN :

S'inscrire | Disclaimer

   EN    FR    IT 

 










Légende :    VFR   VFR Marginal   IFR   IFR Intensif   IFR Très Intensif
Visi : 
Plafond : 
>= 8 km
>= 3000ft
5 à 8 km
1000 à 3000 ft
1500m à 5 km
500 à 1000 ft
800 à 1500m
200 à 500 ft
< 800m
< 200 ft
Symboles :   Orages  Brouillard  Fortes neiges  Fortes précipitations  Vent > 20 kt
SIGMETs :   Divers  Orages  Givrage  Turbulence  Onde Orograph.  Cendres Volcan.






- Altitude de l'aérodrome : 1416 ft
- Code IATA : ZRH


LSZH - Zurich

DERNIER METAR :
  • 050750Z 25007KT 210V280 CAVOK 22/13 Q1021 NOSIG

METARs EXPIRÉS :
  • 050720Z 21004KT 160V270 CAVOK 21/13 Q1021 NOSIG
  • 050650Z 23007KT CAVOK 20/13 Q1021 NOSIG
  • 050620Z 22005KT CAVOK 19/13 Q1021 NOSIG
  • 050550Z 22005KT CAVOK 18/14 Q1021 NOSIG
  • 050520Z 16003KT CAVOK 16/13 Q1021 NOSIG

TAF AMD TAF LSZH
Valide du 05 à 05h jusqu'au 06 à 09h UTC


050541Z 0505/0609 VRB03KT CAVOK TX27/0515Z TN18/0506Z TN16/0604Z
PROB40 0511/0517 30010KT
BECMG 0602/0605 9999 BKN040
PROB40 0609/0612 29012G27KT
ATIS : +41 43 816 2295 (DEP) +41 43 816 2294 (ARR)



MET'MAP, la Météo Aéronautique d'un coup d'oeil ! - Copyright ORBIFLY Décembre 2007 - Disclaimer

ORBIFLY MET'MAP TEAM :

Programmation & Développement : Alexandra Zaïnal
Sur une idée originale de : Baudouin d'Aumeries
Assistance à la programmation : Marc-Olivier Méhu
Soutien technique & logistique : Manuel Goepfert

Contact : metmap@orbifly.com




SOURCES & CREDITS :

   NOAA